C/2022 P1 ( NEOWISE )

Japanese version
Home page
Updated on September 26, 2022

---------------------------------------------------------------------

* Profile

Discovery Date August 8, 2022
Magnitude 18 mag
Discoverer Near-Earth Object Wide-field Infrared Survey Explorer

* Pictures

* Orbital Elements

Epoch 2022 Aug. 9.0 TT = JDT 2459800.5
T 2022 Nov. 28.42178 TT                                 Rudenko
q   1.5953912            (2000.0)            P               Q
n   0.01218856     Peri.  249.91255     +0.67077150     -0.71903516
a  18.6996900      Node   205.08565     -0.41120272     -0.56455881
e   0.9146835      Incl.  154.60734     -0.61723409     -0.40529222
P  80.9
From 229 observations 2022 Aug. 8-Sept. 8, mean residual 0".4.

* Finding Charts

* Magnitudes Graph

        m1 = 3.0 + 5 log d + 30 log r

---------------------------------------------------------------------

The orbital elements are published on M.P.E.C. 2022-R139.
The charts are made with StellaNavigator Ver.10 (AstroArts).
The magnitudes graphs are made with Comet for Windows.

---------------------------------------------------------------------

Copyright(C) Seiichi Yoshida (comet@aerith.net). All rights reserved.